OH6GKW Weather Reports


Display with metric or nautical units.
time (UTC)temp
F
wind
direction
speed
MPH
gust
MPH
rain 1hr
in
rain 24hr
in
rain mn
in
humidity
%
barometer
mb
20260508092833 51 261 4.0 0.0 0.00 0.00 0.01 40 1023.6
20260508092347 52 254 4.0 0.0 0.00 0.00 0.01 41 1023.6
20260508091838 51 267 5.0 0.0 0.00 0.00 0.01 43 1023.6
20260508091330 51 295 5.0 0.0 0.00 0.00 0.01 40 1023.6
20260508090854 51 331 4.0 0.0 0.00 0.00 0.01 45 1023.6
20260508090353 51 257 4.0 0.0 0.00 0.00 0.01 43 1023.6
20260508085844 51 227 5.0 0.0 0.00 0.00 0.01 44 1023.5
20260508085340 51 251 5.0 0.0 0.00 0.00 0.01 39 1023.5
20260508084838 51 241 3.0 0.0 0.00 0.00 0.01 45 1023.5
20260508084331 51 272 4.0 0.0 0.00 0.00 0.01 52 1023.4
20260508083843 50 282 4.0 0.0 0.00 0.00 0.01 50 1023.4
20260508083340 51 241 4.0 0.0 0.00 0.00 0.01 50 1023.4
20260508082830 51 324 3.0 0.0 0.00 0.00 0.01 50 1023.3
20260508082343 51 286 3.0 0.0 0.00 0.00 0.01 51 1023.3
20260508081835 50 204 3.0 0.0 0.00 0.00 0.01 52 1023.3
20260508081339 50 224 3.0 0.0 0.00 0.00 0.01 51 1023.2
20260508080835 50 268 3.0 0.0 0.00 0.00 0.01 54 1023.2
20260508080348 49 254 4.0 0.0 0.00 0.00 0.01 56 1023.2
20260508075841 49 258 4.0 0.0 0.00 0.00 0.01 58 1023.1
20260508075330 49 295 3.0 0.0 0.00 0.00 0.01 56 1023.1
20260508074843 49 281 3.0 0.0 0.00 0.00 0.01 57 1023.1
20260508074336 49 265 3.0 0.0 0.00 0.00 0.01 61 1023.0
20260508073828 49 261 4.0 0.0 0.00 0.00 0.01 63 1023.0
20260508073354 49 196 4.0 0.0 0.00 0.00 0.01 64 1023.0
20260508072848 49 182 2.0 0.0 0.00 0.00 0.01 63 1022.9
20260508072341 49 288 2.0 0.0 0.00 0.00 0.01 63 1022.9
20260508071834 49 298 2.0 0.0 0.00 0.00 0.01 63 1022.9
20260508071330 48 316 3.0 0.0 0.00 0.00 0.01 61 1022.7
20260508070845 48 245 3.0 0.0 0.00 0.00 0.01 64 1022.7
20260508070338 48 179 3.0 0.0 0.00 0.00 0.01 65 1022.7
20260508065836 47 233 4.0 0.0 0.00 0.00 0.01 67 1022.5
20260508065329 47 221 4.0 0.0 0.00 0.00 0.01 67 1022.5
20260508064844 48 209 2.0 0.0 0.00 0.00 0.01 67 1022.5
20260508064337 48 226 1.0 0.0 0.00 0.00 0.01 68 1022.3
20260508063829 47 269 0.0 0.0 0.00 0.00 0.01 67 1022.3
20260508063357 47 289 0.0 0.0 0.00 0.00 0.01 68 1022.3
20260508062847 47 235 0.0 0.0 0.00 0.00 0.01 69 1022.1
20260508062340 47 224 0.0 0.0 0.00 0.00 0.01 71 1022.1
20260508061832 46 203 0.0 0.0 0.00 0.00 0.01 72 1022.1
20260508061341 46 185 0.0 0.0 0.00 0.00 0.01 73 1022.0
20260508060833 45 243 0.0 0.0 0.00 0.00 0.01 75 1022.0
20260508060359 45 203 0.0 0.0 0.00 0.00 0.01 77 1022.0
20260508055853 45 179 0.0 0.0 0.00 0.00 0.01 79 1021.8
20260508055345 44 228 0.0 0.0 0.00 0.00 0.01 80 1021.8
20260508054840 44 228 0.0 0.0 0.00 0.00 0.01 82 1021.8
20260508054333 43 224 0.0 0.0 0.00 0.00 0.01 86 1021.6
20260508053829 42 224 0.0 0.0 0.00 0.00 0.01 90 1021.6
20260508053344 41 224 0.0 0.0 0.00 0.00 0.01 93 1021.6
20260508052837 41 224 0.0 0.0 0.00 0.00 0.01 97 1021.4
20260508052330 40 224 0.0 0.0 0.00 0.00 0.01 98 1021.4
20260508051838 40 223 0.0 0.0 0.00 0.00 0.01 98 1021.4
20260508051331 39 223 0.0 0.0 0.00 0.00 0.01 98 1021.4
20260508050855 39 221 0.0 0.0 0.00 0.00 0.01 98 1021.4
20260508050350 39 227 0.0 0.0 0.00 0.00 0.01 98 1021.4
20260508045840 38 227 0.0 0.0 0.00 0.00 0.01 98 1021.2
20260508045333 38 227 0.0 0.0 0.00 0.00 0.01 98 1021.2
20260508044844 37 227 0.0 0.0 0.00 0.00 0.01 98 1021.2
20260508044337 37 227 0.0 0.0 0.00 0.00 0.01 98 1021.1
20260508043833 37 227 0.0 0.0 0.00 0.00 0.00 98 1021.1
20260508043343 36 227 0.0 0.0 0.00 0.00 0.00 98 1021.1
20260508042833 36 228 0.0 0.0 0.00 0.00 0.00 98 1021.0
20260508042357 35 228 0.0 0.0 0.00 0.00 0.00 98 1021.0
20260508041853 35 228 0.0 0.0 0.00 0.00 0.00 98 1021.0
20260508041346 34 228 0.0 0.0 0.00 0.00 0.00 98 1020.8
20260508040838 34 228 0.0 0.0 0.00 0.00 0.00 98 1020.8
20260508040333 33 228 0.0 0.0 0.00 0.00 0.00 98 1020.8
20260508035848 33 228 0.0 0.0 0.00 0.00 0.00 98 1020.7
20260508035341 32 228 0.0 0.0 0.00 0.00 0.00 98 1020.7
20260508034833 32 228 0.0 0.0 0.00 0.00 0.00 98 1020.7
20260508034354 31 228 0.0 0.0 0.00 0.00 0.00 98 1020.5
20260508033846 31 231 0.0 0.0 0.00 0.00 0.00 98 1020.5
20260508033342 31 231 0.0 0.0 0.00 0.00 0.00 98 1020.5
20260508032832 31 231 0.0 0.0 0.00 0.00 0.00 98 1020.3
20260508032345 31 231 0.0 0.0 0.00 0.00 0.00 98 1020.3
20260508031838 30 231 0.0 0.0 0.00 0.00 0.00 98 1020.3
20260508031329 29 231 0.0 0.0 0.00 0.00 0.00 98 1020.2
20260508030846 29 231 0.0 0.0 0.00 0.00 0.00 98 1020.2
20260508030340 28 231 0.0 0.0 0.00 0.00 0.00 98 1020.2
20260508025834 28 231 0.0 0.0 0.00 0.00 0.00 98 1020.1
20260508025355 28 231 0.0 0.0 0.00 0.00 0.00 98 1020.1
20260508024846 28 231 0.0 0.0 0.00 0.00 0.00 98 1020.1
20260508024339 28 231 0.0 0.0 0.00 0.00 0.00 98 1020.0
20260508023831 27 231 0.0 0.0 0.00 0.00 0.00 98 1020.0
20260508023345 28 231 0.0 0.0 0.00 0.00 0.00 98 1020.0
20260508022836 28 231 0.0 0.0 0.00 0.00 0.00 98 1019.9
20260508022329 28 231 0.0 0.0 0.00 0.00 0.00 98 1019.9
20260508021842 28 231 0.0 0.0 0.00 0.00 0.00 98 1019.9
20260508021335 28 231 0.0 0.0 0.00 0.00 0.00 98 1019.8
20260508020859 28 231 0.0 0.0 0.00 0.00 0.00 98 1019.8
20260508020334 28 231 0.0 0.0 0.00 0.00 0.00 98 1019.8
20260508015839 29 231 0.0 0.0 0.00 0.00 0.00 98 1019.6
20260508015332 29 231 0.0 0.0 0.00 0.00 0.00 98 1019.6
20260508014845 29 231 0.0 0.0 0.00 0.00 0.00 98 1019.6
20260508014338 29 231 0.0 0.0 0.00 0.00 0.00 98 1019.4
20260508013830 29 231 0.0 0.0 0.00 0.00 0.00 98 1019.4
20260508013357 29 231 0.0 0.0 0.00 0.00 0.00 98 1019.4
20260508012851 30 231 0.0 0.0 0.00 0.00 0.00 98 1019.3
20260508012343 30 231 0.0 0.0 0.00 0.00 0.00 98 1019.3
20260508011835 30 231 0.0 0.0 0.00 0.00 0.00 98 1019.3
20260508011343 30 231 0.0 0.0 0.00 0.00 0.00 98 1019.3
20260508010836 30 231 0.0 0.0 0.00 0.00 0.00 98 1019.3
20260508010331 29 231 0.0 0.0 0.00 0.00 0.00 98 1019.3
20260508005840 29 231 0.0 0.0 0.00 0.00 0.00 98 1019.1
20260508005333 29 243 0.0 0.0 0.00 0.00 0.00 98 1019.1
20260508004857 30 243 0.0 0.0 0.00 0.00 0.00 98 1019.1
20260508004354 30 243 0.0 0.0 0.00 0.00 0.00 98 1019.0
20260508003846 30 243 0.0 0.0 0.00 0.00 0.00 98 1019.0
20260508003343 30 243 0.0 0.0 0.00 0.00 0.00 98 1019.0
20260508002833 29 243 0.0 0.0 0.00 0.00 0.00 98 1018.8
20260508002343 29 243 0.0 0.0 0.00 0.00 0.00 98 1018.8
20260508001835 29 243 0.0 0.0 0.00 0.00 0.00 98 1018.8
20260508001332 29 243 0.0 0.0 0.00 0.00 0.00 98 1018.7
20260508000856 29 243 0.0 0.0 0.00 0.00 0.00 98 1018.7
20260508000354 30 243 0.0 0.0 0.00 0.00 0.00 98 1018.7
20260507235845 31 243 0.0 0.0 0.00 0.00 0.00 98 1018.4
20260507235338 31 243 0.0 0.0 0.00 0.00 0.00 98 1018.4
20260507234830 31 243 0.0 0.0 0.00 0.00 0.00 98 1018.4
20260507234347 31 243 0.0 0.0 0.00 0.00 0.00 98 1018.3
20260507233839 30 243 0.0 0.0 0.00 0.00 0.00 98 1018.3
20260507233334 29 243 0.0 0.0 0.00 0.00 0.00 98 1018.3
20260507232845 29 243 0.0 0.0 0.00 0.00 0.00 98 1018.2
20260507232342 30 243 0.0 0.0 0.00 0.00 0.00 98 1018.2
20260507231834 30 243 0.0 0.0 0.00 0.00 0.00 98 1018.2
20260507231330 29 243 0.0 0.0 0.00 0.00 0.00 98 1018.1
20260507230853 29 243 0.0 0.0 0.00 0.00 0.00 98 1018.1
20260507230347 30 243 0.0 0.0 0.00 0.00 0.00 98 1018.1
20260507225838 31 243 0.0 0.0 0.00 0.00 0.00 98 1018.0
20260507225331 31 243 0.0 0.0 0.00 0.00 0.00 98 1018.0
20260507224844 31 243 0.0 0.0 0.00 0.00 0.00 98 1018.0
20260507224337 30 243 0.0 0.0 0.00 0.00 0.00 98 1017.9
20260507223856 30 243 0.0 0.0 0.00 0.00 0.00 98 1017.9
20260507223348 31 243 0.0 0.0 0.00 0.00 0.00 98 1017.9
20260507222839 31 243 0.0 0.0 0.00 0.00 0.00 98 1017.8
20260507222332 32 243 0.0 0.0 0.00 0.00 0.00 98 1017.8
20260507221845 32 243 0.0 0.0 0.00 0.00 0.00 98 1017.8
20260507221338 31 243 0.0 0.0 0.00 0.00 0.00 98 1017.7
20260507220830 31 243 0.0 0.0 0.00 0.00 0.00 98 1017.7
20260507220332 31 243 0.0 0.0 0.00 0.00 0.00 98 1017.7
20260507215843 31 243 0.0 0.0 0.00 0.00 0.00 98 1017.5
20260507215336 31 243 0.0 0.0 0.00 0.00 0.00 98 1017.5
20260507214855 30 243 0.0 0.0 0.00 0.00 0.00 98 1017.5
20260507214352 30 244 0.0 0.0 0.00 0.00 0.00 98 1017.4
20260507213848 31 244 0.0 0.0 0.00 0.00 0.00 98 1017.4
20260507213343 31 245 0.0 0.0 0.00 0.00 0.00 98 1017.4
20260507212840 31 245 0.0 0.0 0.00 0.00 0.00 98 1017.3
20260507212336 31 245 0.0 0.0 0.00 0.00 0.00 98 1017.3
20260507211833 30 245 0.0 0.0 0.00 0.00 0.00 98 1017.3
20260507211329 30 245 0.0 0.0 0.00 0.00 0.00 98 1017.2
20260507210842 31 245 0.0 0.0 0.00 0.00 0.00 98 1017.2
20260507210336 31 245 0.0 0.0 0.00 0.00 0.00 98 1017.2
20260507205843 31 245 0.0 0.0 0.00 0.00 0.00 98 1017.0
20260507205335 31 245 0.0 0.0 0.00 0.00 0.00 98 1017.0
20260507204831 31 245 0.0 0.0 0.00 0.00 0.00 98 1017.0
20260507204338 31 245 0.0 0.0 0.00 0.00 0.00 98 1016.8
20260507203850 31 245 0.0 0.0 0.00 0.00 0.00 98 1016.8
20260507203345 31 245 0.0 0.0 0.00 0.00 0.00 98 1016.8
20260507202836 31 245 0.0 0.0 0.00 0.00 0.00 97 1016.6
20260507202328 32 245 0.0 0.0 0.00 0.00 0.00 96 1016.6
20260507201840 32 245 0.0 0.0 0.00 0.00 0.00 95 1016.6
20260507201333 33 245 0.0 0.0 0.00 0.00 0.00 95 1016.4
20260507200830 33 245 0.0 0.0 0.00 0.00 0.00 94 1016.4
20260507200352 34 245 0.0 0.0 0.00 0.00 0.00 95 1016.4
20260507195843 34 245 0.0 0.0 0.00 0.00 0.00 95 1016.3
20260507195339 34 245 0.0 0.0 0.00 0.00 0.00 94 1016.3
20260507194831 34 245 0.0 0.0 0.00 0.00 0.00 94 1016.3
20260507194345 34 245 0.0 0.0 0.00 0.00 0.00 93 1016.2
20260507193837 35 245 0.0 0.0 0.00 0.00 0.00 93 1016.2
20260507193332 35 245 0.0 0.0 0.00 0.00 0.00 92 1016.2
20260507192846 35 245 0.0 0.0 0.00 0.00 0.00 90 1015.9
20260507192339 36 245 0.0 0.0 0.00 0.00 0.00 88 1015.9
20260507191831 37 245 0.0 0.0 0.00 0.00 0.00 89 1015.9
20260507191352 37 245 0.0 0.0 0.00 0.00 0.00 87 1015.8
20260507190844 37 245 0.0 0.0 0.00 0.00 0.00 85 1015.8
20260507190339 38 245 0.0 0.0 0.00 0.00 0.00 84 1015.8
20260507185830 39 245 0.0 0.0 0.00 0.00 0.00 84 1015.8
20260507185343 39 245 0.0 0.0 0.00 0.00 0.00 84 1015.8
20260507184835 40 245 0.0 0.0 0.00 0.00 0.00 83 1015.8
20260507184328 40 245 0.0 0.0 0.00 0.00 0.00 82 1015.8
20260507183825 40 245 0.0 0.0 0.00 0.00 0.00 82 1015.8
20260507183354 40 254 0.0 0.0 0.00 0.00 0.00 81 1015.8
20260507182845 41 261 0.0 0.0 0.00 0.00 0.00 81 1015.7
20260507182334 41 235 1.0 0.0 0.00 0.00 0.00 81 1015.7
20260507181846 41 283 1.0 0.0 0.00 0.00 0.00 81 1015.7
20260507181338 41 268 1.0 0.0 0.00 0.00 0.00 80 1015.6
20260507180829 41 265 0.0 0.0 0.00 0.00 0.00 80 1015.6
20260507180345 41 298 1.0 0.0 0.00 0.00 0.00 80 1015.6
20260507175833 41 268 3.0 0.0 0.00 0.00 0.00 79 1015.5
20260507175330 41 317 3.0 0.0 0.00 0.00 0.00 79 1015.5
20260507174852 41 300 3.0 0.0 0.00 0.00 0.00 78 1015.5
20260507174344 41 262 2.0 0.0 0.00 0.00 0.00 76 1015.3
20260507173836 41 233 3.0 0.0 0.00 0.00 0.00 75 1015.3
20260507173348 41 275 2.0 0.0 0.00 0.00 0.00 74 1015.3
20260507172837 42 267 0.0 0.0 0.00 0.00 0.00 73 1015.3
20260507172330 41 305 0.0 0.0 0.00 0.00 0.00 74 1015.3
20260507171842 41 286 2.0 0.0 0.00 0.00 0.00 75 1015.3
20260507171335 41 306 3.0 0.0 0.00 0.00 0.00 75 1015.1
20260507170859 41 326 3.0 0.0 0.00 0.00 0.00 74 1015.1
20260507170335 41 292 4.0 0.0 0.00 0.00 0.00 74 1015.1
20260507165843 42 319 4.0 0.0 0.00 0.00 0.00 74 1015.0
20260507165336 42 319 5.0 0.0 0.00 0.00 0.00 73 1015.0
20260507164829 42 291 5.0 0.0 0.00 0.00 0.00 73 1015.0
20260507164344 43 283 4.0 0.0 0.00 0.00 0.00 73 1014.8
20260507163837 43 282 4.0 0.0 0.00 0.00 0.00 73 1014.8
20260507163332 43 309 5.0 0.0 0.00 0.00 0.00 72 1014.8
20260507162852 43 296 5.0 0.0 0.00 0.00 0.00 72 1014.6
20260507162343 43 261 6.0 0.0 0.00 0.00 0.00 71 1014.6
20260507161833 43 255 6.0 0.0 0.00 0.00 0.00 70 1014.6
20260507161345 44 268 6.0 0.0 0.00 0.00 0.00 67 1014.5
20260507160837 44 288 6.0 0.0 0.00 0.00 0.00 65 1014.5
20260507160335 44 278 6.0 0.0 0.00 0.00 0.00 66 1014.5
20260507155827 43 259 5.0 0.0 0.00 0.00 0.00 67 1014.2
20260507155342 44 285 5.0 0.0 0.00 0.00 0.00 66 1014.2
20260507154833 45 303 3.0 0.0 0.00 0.00 0.00 64 1014.2
20260507154357 45 307 3.0 0.0 0.00 0.00 0.00 63 1014.1
20260507153848 45 316 5.0 0.0 0.00 0.00 0.00 63 1014.1
20260507153344 44 257 4.0 0.0 0.00 0.00 0.00 63 1014.1
20260507152833 45 286 1.0 0.0 0.00 0.00 0.00 63 1013.9
20260507152346 45 323 1.0 0.0 0.00 0.00 0.00 63 1013.9
20260507151837 44 334 1.0 0.0 0.00 0.00 0.00 64 1013.9
20260507151333 44 343 3.0 0.0 0.00 0.00 0.00 63 1013.8
20260507150841 44 346 4.0 0.0 0.00 0.00 0.00 62 1013.8
20260507150335 46 319 4.0 0.0 0.00 0.00 0.00 61 1013.8
20260507145829 46 336 3.0 0.0 0.00 0.00 0.00 63 1013.6
20260507145356 46 303 3.0 0.0 0.00 0.00 0.00 64 1013.6
20260507144848 46 309 3.0 0.0 0.00 0.00 0.00 64 1013.6
20260507144342 46 323 4.0 0.0 0.00 0.00 0.00 63 1013.4
20260507143838 47 309 4.0 0.0 0.00 0.00 0.00 57 1013.4
20260507143333 48 317 3.0 0.0 0.00 0.00 0.00 59 1013.4
20260507142843 48 348 1.0 0.0 0.00 0.00 0.00 57 1013.5
20260507142343 48 14 2.0 0.0 0.00 0.00 0.00 58 1013.5
20260507141835 47 274 4.0 0.0 0.00 0.00 0.00 58 1013.5
20260507141343 47 331 5.0 0.0 0.00 0.00 0.00 61 1013.4
20260507140835 47 298 4.0 0.0 0.00 0.00 0.00 61 1013.4
20260507140403 48 316 3.0 0.0 0.00 0.00 0.00 57 1013.4
20260507135852 49 319 1.0 0.0 0.00 0.00 0.00 57 1013.2
20260507135345 49 337 1.0 0.0 0.00 0.00 0.00 59 1013.2
20260507134841 49 315 1.0 0.0 0.00 0.00 0.00 60 1013.2
20260507134337 49 60 1.0 0.0 0.00 0.00 0.00 61 1013.1
20260507133835 49 3 2.0 0.0 0.00 0.00 0.00 59 1013.1
20260507133351 48 65 2.0 0.0 0.00 0.00 0.00 60 1013.1
20260507132843 49 300 1.0 0.0 0.00 0.00 0.00 58 1013.1
20260507132335 49 353 1.0 0.0 0.00 0.00 0.00 60 1013.1
20260507131846 49 347 1.0 0.0 0.00 0.00 0.00 60 1013.1
20260507131338 49 65 0.0 0.0 0.00 0.00 0.00 62 1013.0
20260507130830 48 48 1.0 0.0 0.00 0.00 0.00 62 1013.0
20260507130357 47 21 0.0 0.0 0.00 0.00 0.00 63 1013.0
20260507125847 46 24 0.0 0.0 0.00 0.00 0.00 65 1013.1
20260507125347 46 24 1.0 0.0 0.00 0.00 0.00 65 1013.1
20260507124840 48 24 1.0 0.0 0.00 0.00 0.00 63 1013.1
20260507124333 48 70 1.0 0.0 0.00 0.00 0.00 65 1013.1
20260507123829 48 38 1.0 0.0 0.00 0.00 0.00 64 1013.1
20260507123341 48 357 2.0 0.0 0.00 0.00 0.00 66 1013.1
20260507122831 48 350 1.0 0.0 0.00 0.00 0.00 63 1013.1
20260507122356 47 309 1.0 0.0 0.00 0.00 0.00 68 1013.1
20260507121847 46 29 2.0 0.0 0.00 0.00 0.00 70 1013.1
20260507121340 46 315 2.0 0.0 0.00 0.00 0.00 70 1013.3
20260507120833 44 337 1.0 0.0 0.00 0.00 0.00 72 1013.3
20260507120348 44 4 2.0 0.0 0.00 0.00 0.00 72 1013.3
20260507115838 44 323 1.0 0.0 0.00 0.00 0.00 72 1013.1
20260507115331 44 360 0.0 0.0 0.00 0.00 0.00 71 1013.1
20260507114847 44 354 0.0 0.0 0.00 0.00 0.00 72 1013.1
20260507114336 44 10 0.0 0.0 0.00 0.00 0.00 74 1013.1
20260507113832 44 27 0.0 0.0 0.00 0.00 0.00 76 1013.1
20260507113331 43 355 1.0 0.0 0.00 0.00 0.00 77 1013.1
20260507112857 43 355 1.0 0.0 0.00 0.00 0.00 76 1013.2
20260507112350 43 7 1.0 0.0 0.00 0.00 0.00 76 1013.2
20260507111845 43 4 2.0 0.0 0.00 0.00 0.00 76 1013.2
20260507111338 43 19 4.0 0.0 0.00 0.00 0.00 76 1013.1
20260507110835 44 326 5.0 0.0 0.00 0.00 0.00 75 1013.1
20260507110350 45 329 2.0 0.0 0.00 0.00 0.00 73 1013.1
20260507105841 46 319 2.0 0.0 0.00 0.00 0.00 71 1013.2
20260507105333 46 310 3.0 0.0 0.00 0.00 0.00 67 1013.2
20260507104842 47 286 2.0 0.0 0.00 0.00 0.00 55 1013.2
20260507104335 47 183 1.0 0.0 0.00 0.00 0.00 50 1013.2
20260507103832 47 187 1.0 0.0 0.00 0.00 0.00 52 1013.2
20260507103338 47 127 0.0 0.0 0.00 0.00 0.00 52 1013.2
20260507102828 47 141 1.0 0.0 0.00 0.00 0.00 52 1013.3
20260507102341 46 144 2.0 0.0 0.00 0.00 0.00 52 1013.3
20260507101833 46 162 2.0 0.0 0.00 0.00 0.00 54 1013.3
20260507101347 46 171 3.0 0.0 0.00 0.00 0.00 53 1013.4
20260507100839 46 175 3.0 0.0 0.00 0.00 0.00 54 1013.4
20260507100336 47 182 3.0 0.0 0.00 0.00 0.00 55 1013.4
20260507095853 46 125 3.0 0.0 0.00 0.00 0.00 57 1013.6
20260507095349 46 179 2.0 0.0 0.00 0.00 0.00 59 1013.6
20260507094844 45 161 2.0 0.0 0.00 0.00 0.00 60 1013.6
20260507094337 45 173 3.0 0.0 0.00 0.00 0.00 62 1013.7
20260507093829 45 137 3.0 0.0 0.00 0.00 0.00 62 1013.7
20260507093343 45 114 2.0 0.0 0.00 0.00 0.00 63 1013.7